Regional Weather Roundup
Issued by NWS

Home | Current Version | Previous Version | Text Only | Print | Product List | Glossary Off
Versions: 1 2 3 4 5 6 7 8 9 10 11 12 13 14 15 16 17 18 19 20 21 22 23 24 25 26 27 28 29 30 31 32 33 34 35 36 37 38 39 40 41 42 43 44 45 46 47 48 49 50

000
ASUS45 KTFX 272019
RWRMT
MONTANA HOURLY WEATHER ROUNDUP
NATIONAL WEATHER SERVICE GREAT FALLS MT
219 PM MDT WED AUG 27 2014

NOTE: "FAIR" INDICATES FEW OR NO CLOUDS BELOW 12000 FEET WITH NO
SIGNIFICANT WEATHER AND/OR OBSTRUCTIONS TO VISIBILITY.

* THESE STATIONS ARE NOT UNDER NWS QUALITY CONTROL. THEY DO NOT
   REPORT WEATHER SUCH AS PRECIPITATION OR FOG.

MTZ001>007-043-272100-
WEST OF THE DIVIDE
CITY           SKY/WX    TMP DP  RH WIND       PRES   REMARKS
KALISPELL      SUNNY     79  46  31 SE9       30.06F
MISSOULA       SUNNY     79  46  31 S5        30.11F
BUTTE          SUNNY     73  37  27 NW12G20   30.21F
MULLAN PASS    SUNNY     68  39  35 N/A       30.25S
* LINCOLN      N/A       74  44  34 SW7G17     N/A
* LOOKOUT PASS N/A       75  42  31 SE9G14     N/A
* POLSON       N/A       83  49  31 S4G10      N/A
* RONAN APT    SUNNY     81  45  28 N/A        N/A
* SEELEY LAKE  N/A       76  45  33 W6         N/A
* THOMP F APT  SUNNY     84  48  29 N/A        N/A
$$

MTZ008-052>055-272100-
SOUTHWEST MONTANA
CITY           SKY/WX    TMP DP  RH WIND       PRES   REMARKS
BOZEMAN        SUNNY     75  45  34 CALM      30.14S
DILLON         SUNNY     75  41  30 S7        30.16F
W YELLOWSTONE  PTCLDY    70  39  32 SW7       30.26S
* THREE FORKS  SUNNY     79  70  74 W8         N/A
* BOULDER HILL N/A       74  36  25 NE1        N/A
* MONIDA PASS  N/A       68  37  32 N11G17     N/A
* RAYNOLDS PAS N/A       68  54  61 SW5G11     N/A
* WHITEHALL    N/A       81  44  27 SW6G13     N/A
* WISE RIVER   N/A       72  40  31 NW9G17     N/A
$$

MTZ009>010-012-014-046-048-049-054-272100-
EAST SLOPES AND CENTRAL MONTANA
CITY           SKY/WX    TMP DP  RH WIND       PRES   REMARKS
CUT BANK       SUNNY     82  45  27 NW13      30.02S
GREAT FALLS    SUNNY     82  45  27 W10G17    30.04F
HELENA         SUNNY     81  45  28 W12G17    30.08F
MALMSTROM AFB  SUNNY     81  43  26 W9        30.05F
* CONRAD       SUNNY     84  46  26 NW5        N/A
* EAST GLACIER N/A       75  46  36 W9G20      N/A
* MONARCH      N/A       72  35  26 W9G19      N/A
* PENDROY      N/A       80  43  27 NW11G16    N/A
* ROGERS PASS  N/A       70  43  38 SE10G20    N/A
* SAINT MARY   N/A       74  46  37 SW12G21    N/A
* SWEET GRASS  N/A       81  45  28 NW18G23    N/A
* WHITE SULPH  N/A       74  41  31 NW12G20    N/A
$$

MTZ011-013-016-021-035-040-045-047-050-051-272100-
NORTH CENTRAL MONTANA
CITY           SKY/WX    TMP DP  RH WIND       PRES   REMARKS
HAVRE          SUNNY     84  46  26 W12G24    29.95F
LEWISTOWN      SUNNY     81  43  26 NW12      30.07S
* CHINOOK      SUNNY     82  48  31 SW13G18   29.95F
* FORT BENTON  SUNNY     84  43  24 SW6       30.00F
* CHESTER      N/A       81  44  27 W8G13      N/A
* DENTON       N/A       81  41  24 W15G26     N/A
* GEYSER       N/A       79  40  25 W16        N/A
* JUDITH GAP   N/A       78  40  26 NW10       N/A
* LOMA         N/A       82  46  28 SW13       N/A
$$

MTZ017>020-022>027-061-062-272100-
NORTHEAST MONTANA
CITY           SKY/WX    TMP DP  RH WIND       PRES   REMARKS
GLASGOW        SUNNY     82  54  38 S8        29.95F
GLENDIVE       SUNNY     81  54  39 SE10      30.03F
JORDAN         SUNNY     84  54  36 W12       29.98F
SIDNEY         SUNNY     81  57  44 SE10      30.02F HI  81
WOLF POINT     SUNNY     88  52  29 SW9       29.96F
* BEAVER HILL  N/A       79  52  39 SE12G19    N/A
* CIRCLE       N/A       85  56  37 S6G13      N/A
* LINDSAY DVD  N/A       79  53  41 SE17       N/A
* NAVAJO       N/A       82  51  34 S11G21     N/A
$$

MTZ028>042-056>058-272100-
SOUTHCENTRAL AND SOUTHEAST MONTANA
CITY           SKY/WX    TMP DP  RH WIND       PRES   REMARKS
BAKER          SUNNY     81  50  34 SE9       30.09S
BILLINGS       SUNNY     82  48  31 S9        30.06F
LIVINGSTON     SUNNY     82  37  20 W20       30.11S
MILES CITY     PTCLDY    82  45  27 S16G22    30.02F
* LAUREL APT   SUNNY     82  46  28 SE5        N/A
* ROUNDUP APT  SUNNY     82  46  28 N/A        N/A
* ALZADA       N/A       77  54  45 E9         N/A
* HYSHAM       N/A       81  43  26 W7         N/A
* LAME DEER    N/A       77  52  42 S11        N/A
* REED POINT   N/A       83  40  22 W14G25     N/A
* ROSCOE HILL  N/A       77  31  19 NE6G12     N/A
$$

REGIONAL REPORTS...DAKOTAS
CITY           SKY/WX    TMP DP  RH WIND       PRES   REMARKS
WILLISTON      SUNNY     82  52  35 SE8       30.02F
DICKINSON      SUNNY     75  55  50 SE10      30.07F
BEACH          N/A       77  54  45 S13       30.06F
CROSBY         SUNNY     79  54  42 S10G18    30.01F
TIOGA          SUNNY     77  55  47 S14       30.07F
WATFORD CITY   SUNNY     81  52  37 S9        30.01F
BISMARCK       SUNNY     75  57  54 S7        30.11F
GRAND FORKS    PTCLDY    73  52  48 SW3       30.13F
FARGO          PTCLDY    73  59  62 S10       30.14F
BUFFALO SD     PTCLDY    79  57  47 SE10      30.03F
RAPID CITY     CLOUDY    73  61  66 CALM      30.09F
$$

REGIONAL REPORTS...WYOMING/IDAHO/WASHINGTON
CITY           SKY/WX    TMP DP  RH WIND       PRES   REMARKS
GILLETTE       CLOUDY    77  54  45 E5        30.11F
SHERIDAN       CLOUDY    79  50  36 SE8       30.09F
CODY           PTSUNNY   75  46  36 E3        30.14F
YELLOWSTONE LA PTCLDY    63  41  45 VRB6      30.35S
SALMON         SUNNY     73  50  44 CALM      30.13F
MULLAN PASS    SUNNY     68  39  35 N/A       30.25S
SAND POINT     SUNNY     79  54  42 SE7       30.04F
SPOKANE        SUNNY     84  43  24 W12       30.04F
$$

REGIONAL REPORTS...ALBERTA
CITY           SKY/WX    TMP DP  RH WIND       PRES   REMARKS
CALGARY        SUNNY     81  41  24 W13       29.94F
LETHBRIDGE     SUNNY     84  48  29 W20G28    29.94F
MEDICINE HAT   N/A       86  48  27 W10       29.90F
EDMONTON       SUNNY     77  52  42 NW9       29.90S
WATERTON GATE  N/A       77  48  36 SW15G24    N/A
CARDSTON       N/A       79  50  36 W13G23     N/A
MILK RIVER     N/A       84  46  26 W16G24     N/A
$$

REGIONAL REPORTS...SASKATCHEWAN
CITY           SKY/WX    TMP DP  RH WIND       PRES   REMARKS
SWIFT CURRENT  SUNNY     84  45  26 SW17G25   29.88F
MOOSE JAW      SUNNY     82  50  33 SW10G17   29.91F
REGINA         N/A       81  55  41 S10       29.93F HI  81
VAL MARIE      N/A       79  54  42 S9         N/A
ASSINIBOIA     N/A       82  41  23 SW9        N/A

$$




USA.gov is the U.S. government's official web portal to all federal, state and local government web resources and services.